[[{"header":{"parameterUnit":"m.s-1","parameterCategory":1,"la1":30.2991,"la2":30.254,"lo1":-89.0895,"lo2":-89.0444,"dy":0.0017,"dx":0.0017,"nx":28,"ny":28,"refTime":"2024-03-04T09:00:00:Z","depth":0,"parameterNumber":2,"parameterNumberName":"U-component_of_WINDS"},"data":[0,0,0,0,0,0,0,0,0,0,0,0,0,0,0,0,0,0,0,0,0,0,0,0,0,0,0,0,0,0,0,0,0,0,0,0,0,0,0,0,0,0,0,0,0,0,0,0,0,0,0,0,0,0,0,0,0,0,-4.6594,-4.6594,0,-4.6579,-4.6579,-4.6579,-4.645,-4.6447,-4.6443,-4.644,-4.6426,-4.6429,-4.6431,0,0,0,0,0,0,0,0,0,0,0,0,0,-4.6511,-4.6513,-4.6594,-4.6594,-4.6593,-4.6579,-4.6579,-4.6579,-4.645,-4.6446,-4.6443,-4.6439,-4.6425,-4.6429,-4.6432,0,0,0,0,0,0,0,0,0,0,0,0,0,-4.6527,-4.6514,-4.6594,-4.6527,-4.6521,-4.6579,-4.6579,-4.6579,-4.6451,-4.6446,-4.6441,-4.6437,-4.6424,-4.6428,-4.6432,-4.6553,0,0,-4.6444,-4.6446,0,0,0,0,0,0,0,0,-4.6526,-4.653,-4.6537,-4.6532,-4.6525,-4.6511,-4.6545,-4.657,-4.6452,-4.6478,-4.644,-4.6435,-4.6459,-4.6459,-4.6467,-4.6552,-4.6552,-4.6444,-4.6447,-4.6449,-4.645,0,0,0,0,0,0,0,-4.6525,-4.653,-4.6588,-4.6538,-4.653,-4.6499,-4.6496,-4.6549,-4.6495,-4.6475,-4.6466,-4.6466,-4.6454,-4.6464,-4.6466,-4.6551,-4.6444,-4.6448,-4.645,-4.6452,-4.6736,-4.6741,0,0,0,0,0,0,-4.6533,-4.653,-4.6588,-4.6587,-4.6514,-4.6504,-4.6501,-4.6521,-4.6494,-4.6486,-4.647,-4.646,-4.6459,-4.6462,-4.6465,-4.6605,-4.6448,-4.6452,-4.6454,-4.6731,-4.6737,-4.6743,0,0,0,0,0,0,-4.6532,-4.654,-4.6589,-4.6556,-4.656,-4.6511,-4.6534,-4.6523,-4.6532,-4.649,-4.648,-4.6489,-4.6456,-4.6459,-4.6532,-4.6603,-4.6454,-4.6458,-4.6725,-4.6733,-4.674,-4.6887,0,0,0,0,0,0,-4.653,-4.654,-4.6585,-4.6558,-4.6562,-4.6656,-4.6539,-4.6526,-4.6539,-4.6526,-4.6506,-4.6498,-4.6452,-4.6527,-4.6536,-4.6606,-4.6461,-4.6718,-4.6728,-4.6737,-4.6875,-4.6898,-4.6918,0,0,0,0,0,-4.6528,-4.6626,-4.6588,-4.6596,-4.6617,-4.6661,-4.6663,-4.6608,-4.6546,-4.6591,-4.6564,-4.6499,-4.6594,-4.6536,-4.6545,-4.6616,-4.6713,-4.6725,-4.6737,-4.6865,-4.6894,-4.6918,0,0,0,0,0,0,-4.6662,-4.6622,-4.6578,-4.6671,-4.6671,-4.6639,-4.6693,-4.664,-4.6656,-4.6643,-4.6575,-4.6571,-4.6655,-4.6643,-4.6578,-4.6733,-4.6642,-4.6657,-4.6737,-4.6764,-4.6785,-4.6786,-4.6464,0,0,0,0,0,-4.6703,-4.6741,-4.6704,-4.6789,-4.6791,-4.6743,-4.676,-4.6718,-4.6714,-4.6713,-4.6692,-4.6691,-4.6721,-4.6742,-4.6766,-4.6873,-4.6867,-4.6927,-4.6949,-4.6967,-4.6979,-4.7036,-4.7062,-4.6781,-4.6781,-4.6781,0,0,-4.6787,-4.6769,-4.6798,-4.6816,-4.681,-4.6852,-4.6744,-4.6792,-4.6822,-4.672,-4.6788,-4.6773,-4.6767,-4.6858,-4.6897,-4.6851,-4.7056,-4.6982,-4.6996,-4.6999,-4.7051,-4.7078,-4.7101,-4.6789,-4.6788,-4.6786,0,0,-4.6961,-4.6952,-4.7022,-4.702,-4.7013,-4.698,-4.6998,-4.6975,-4.6961,-4.7028,-4.6952,-4.6988,-4.704,-4.704,-4.7047,-4.7224,-4.7165,-4.7234,-4.7347,-4.7403,-4.7425,-4.7444,-4.7508,-4.7531,-4.7247,-4.7248,-4.7248,0,-4.7066,-4.7126,-4.7066,-4.712,-4.713,-4.7041,-4.7113,-4.7113,-4.7115,-4.7125,-4.7073,-4.7138,-4.7128,-4.7218,-4.7261,-4.727,-4.7288,-4.7236,-4.7426,-4.7445,-4.7462,-4.7522,-4.7546,-4.7256,-4.7255,-4.7254,-4.7253,0,-4.7256,-4.7298,-4.7357,-4.7361,-4.7379,-4.7442,-4.7392,-4.7417,-4.7374,-4.7348,-4.7418,-4.7403,-4.7424,-4.7443,-4.7401,-4.7527,-4.7499,-4.7438,-4.7346,-4.7499,-4.7554,-4.7576,-4.7268,-4.7265,-4.7263,-4.7261,0,0,-4.7512,-4.7485,-4.7507,-4.7509,-4.7496,-4.7528,-4.7587,-4.7608,-4.7631,-4.7637,-4.7685,-4.7733,-4.7677,-4.7685,-4.7643,-4.7692,-4.7834,-4.7625,-4.7624,-4.7665,-4.7974,-4.8019,-4.8047,-4.7796,-4.78,-4.7803,-4.7974,0,-4.768,-4.7779,-4.7728,-4.7834,-4.7874,-4.7791,-4.7843,-4.7841,-4.7819,-4.7849,-4.7824,-4.7859,-4.7782,-4.7787,-4.7832,-4.7808,-4.7895,-4.7794,-4.784,-4.7843,-4.7844,-4.8076,-4.8124,-4.8286,-4.7995,-4.7999,-4.8002,0,-4.7888,-4.7903,-4.8014,-4.7995,-4.8009,-4.8057,-4.8073,-4.8103,-4.81,-4.808,-4.8091,-4.8038,-4.8095,-4.8006,-4.8085,-4.8017,-4.8033,-4.8025,-4.8029,-4.8031,-4.7931,-4.8084,-4.8336,-4.8361,-4.8035,-4.8032,-4.803,0,-4.8065,-4.8112,-4.8185,-4.8189,-4.8169,-4.8204,-4.8198,-4.819,-4.8207,-4.8221,-4.8231,-4.8252,-4.8264,-4.8282,-4.8236,-4.8175,-4.8322,-4.8228,-4.8308,-4.8309,-4.8342,-4.834,-4.86,-4.8353,-4.8353,-4.8352,-4.8352,0,-4.8257,-4.8328,-4.8264,-4.8309,-4.8386,-4.8328,-4.8406,-4.8391,-4.8385,-4.8426,-4.8355,-4.8395,-4.8333,-4.8367,-4.8332,-4.8403,-4.8409,-4.8395,-4.8385,-4.8401,-4.8403,-4.841,-4.8398,-4.8359,-4.8357,-4.8356,-4.8355,0,-4.8466,-4.8426,-4.85,-4.8476,-4.8472,-4.853,-4.8509,-4.855,-4.8524,-4.8576,-4.8585,-4.8544,-4.8581,-4.8537,-4.857,-4.8546,-4.8644,-4.8617,-4.8645,-4.8637,-4.872,-4.8713,-4.8993,-4.9027,-4.8759,-4.8761,-4.8764,0,-4.8591,-4.8644,-4.8627,-4.8649,-4.8647,-4.8684,-4.87,-4.8646,-4.8666,-4.8668,-4.8709,-4.874,-4.8761,-4.8824,-4.8797,-4.8822,-4.8795,-4.8892,-4.8799,-4.8814,-4.8797,-4.8795,-4.88,-4.8911,-4.8914,-4.8917,-4.8919,0,-4.8818,-4.8796,-4.8823,-4.8844,-4.8866,-4.888,-4.8889,-4.8911,-4.8854,-4.8881,-4.8918,-4.8935,-4.8969,-4.9001,-4.9019,-4.9012,-4.8957,-4.8949,-4.8969,-4.8986,-4.9,-4.8994,-4.8697,-4.8942,-4.894,-4.8938,-4.8937,-4.8936,-4.8989,-4.9032,-4.9027,-4.906,-4.9061,-4.9071,-4.9109,-4.9088,-4.9117,-4.9141,-4.9107,-4.9154,-4.9151,-4.917,-4.917,-4.9206,-4.9164,-4.9193,-4.92,-4.9208,-4.9221,-4.8995,-4.9209,-4.9208,-4.9208,-4.9207,-4.9206,0,-4.9211,-4.9204,-4.9236,-4.925,-4.9277,-4.9223,-4.923,-4.9256,-4.9298,-4.93,-4.9323,-4.9367,-4.9398,-4.9375,-4.9401,-4.9434,-4.9409,-4.9443,-4.9439,-4.9439,-4.9256,-4.9236,-4.9462,-4.9462,-4.9462,-4.9462,-4.9462,-4.9462,-4.933,-4.9401,-4.938,-4.9452,-4.9444,-4.9489,-4.9498,-4.9507,-4.9509,-4.9561,-4.9586,-4.9571,-4.9564,-4.9589,-4.9616,-4.9608,-4.9621,-4.9664,-4.9648,-4.9477,-4.9452,-4.9428,-4.9409,-4.9667,-4.9668,-4.9827,-4.9829,-4.983]},{"header":{"parameterUnit":"m.s-1","parameterCategory":1,"la1":30.2991,"la2":30.254,"lo1":-89.0895,"lo2":-89.0444,"dy":0.0017,"dx":0.0017,"nx":28,"ny":28,"refTime":"2024-03-04T09:00:00:Z","depth":0,"parameterNumber":3,"parameterNumberName":"V-component_of_WINDS"},"data":[0,0,0,0,0,0,0,0,0,0,0,0,0,0,0,0,0,0,0,0,0,0,0,0,0,0,0,0,0,0,0,0,0,0,0,0,0,0,0,0,0,0,0,0,0,0,0,0,0,0,0,0,0,0,0,0,0,0,0.5729,0.5729,0,0.5739,0.5739,0.5739,0.575,0.575,0.575,0.575,0.576,0.576,0.576,0,0,0,0,0,0,0,0,0,0,0,0,0,0.5719,0.5719,0.5729,0.5729,0.5729,0.5739,0.5739,0.5739,0.575,0.575,0.575,0.575,0.576,0.576,0.5761,0,0,0,0,0,0,0,0,0,0,0,0,0,0.5726,0.5719,0.5729,0.5735,0.5736,0.5739,0.5739,0.574,0.575,0.575,0.575,0.575,0.576,0.576,0.5761,0.5758,0,0,0.5761,0.5761,0,0,0,0,0,0,0,0,0.5725,0.5726,0.5734,0.5735,0.5736,0.5743,0.574,0.5746,0.5749,0.5744,0.575,0.575,0.5754,0.5755,0.5757,0.5758,0.5759,0.5761,0.5761,0.5761,0.5762,0,0,0,0,0,0,0,0.5725,0.5726,0.5733,0.5734,0.5735,0.5738,0.5739,0.5741,0.5748,0.5745,0.5746,0.5747,0.5755,0.5756,0.5757,0.5759,0.5761,0.5761,0.5762,0.5762,0.5762,0.5762,0,0,0,0,0,0,0.5723,0.5725,0.5733,0.5733,0.5731,0.5738,0.574,0.5741,0.5748,0.5749,0.5747,0.5747,0.5756,0.5757,0.5757,0.5756,0.5761,0.5762,0.5762,0.5762,0.5762,0.5762,0,0,0,0,0,0,0.5723,0.5724,0.5732,0.573,0.5731,0.5738,0.5739,0.5741,0.5742,0.5749,0.5751,0.5747,0.5756,0.5757,0.5758,0.5757,0.5762,0.5762,0.5762,0.5762,0.5762,0.5753,0,0,0,0,0,0,0.5723,0.5724,0.5722,0.5729,0.5731,0.5732,0.5739,0.5741,0.5743,0.5744,0.575,0.5751,0.5756,0.5758,0.5759,0.5757,0.5762,0.5763,0.5762,0.5762,0.5754,0.5753,0.5752,0,0,0,0,0,0.5722,0.5719,0.5722,0.5723,0.5729,0.5732,0.5733,0.5739,0.5742,0.5741,0.5747,0.5751,0.5757,0.5758,0.5759,0.5757,0.5763,0.5762,0.5762,0.5754,0.5753,0.5752,0,0,0,0,0,0,0.571,0.572,0.5723,0.5722,0.5726,0.5734,0.5732,0.5737,0.5741,0.5741,0.5749,0.575,0.5751,0.5754,0.5755,0.5757,0.5761,0.576,0.5754,0.5753,0.5752,0.5751,0.5762,0,0,0,0,0,0.5707,0.5709,0.5717,0.5715,0.5717,0.5725,0.5726,0.5731,0.5736,0.5737,0.5742,0.5747,0.575,0.5752,0.5755,0.5755,0.5757,0.5754,0.5753,0.5753,0.5752,0.5754,0.5754,0.5761,0.5761,0.5761,0,0,0.5701,0.5707,0.5707,0.5713,0.5717,0.5719,0.5726,0.5727,0.5729,0.5737,0.5739,0.5744,0.5749,0.575,0.5751,0.5753,0.5751,0.5752,0.5752,0.5752,0.5754,0.5753,0.5753,0.5761,0.5761,0.5761,0,0,0.5691,0.5695,0.5694,0.5699,0.5706,0.5711,0.5711,0.5719,0.5722,0.5724,0.5731,0.5734,0.5739,0.5744,0.5746,0.5742,0.5747,0.5743,0.5738,0.574,0.5739,0.5739,0.5738,0.5738,0.5743,0.5742,0.5742,0,0.5682,0.5686,0.5693,0.5695,0.5698,0.5707,0.5708,0.5712,0.5719,0.5721,0.5724,0.5732,0.5736,0.5739,0.5738,0.574,0.5741,0.5741,0.5739,0.5738,0.5738,0.5738,0.5737,0.5742,0.5742,0.5742,0.5742,0,0.5676,0.5678,0.5677,0.5685,0.5688,0.5689,0.5698,0.57,0.5705,0.5711,0.5715,0.5721,0.5726,0.5728,0.5732,0.5732,0.5733,0.5737,0.5741,0.5737,0.5737,0.5736,0.5741,0.5742,0.5742,0.5742,0,0,0.5655,0.567,0.5669,0.5674,0.5684,0.5686,0.5688,0.5695,0.5697,0.5703,0.5705,0.5711,0.5715,0.5719,0.5724,0.5726,0.5724,0.573,0.573,0.5729,0.5726,0.5723,0.5723,0.5728,0.5727,0.5727,0.5726,0,0.5647,0.5652,0.5661,0.5663,0.5666,0.5676,0.5679,0.5685,0.5692,0.5696,0.5703,0.5707,0.5712,0.5714,0.5717,0.5723,0.5723,0.5724,0.5731,0.5731,0.5729,0.5722,0.5719,0.5716,0.5726,0.5726,0.5726,0,0.5638,0.5644,0.5647,0.5658,0.566,0.5662,0.567,0.5674,0.5682,0.5687,0.5692,0.5699,0.5703,0.5708,0.5714,0.5715,0.5718,0.5723,0.5723,0.5723,0.5728,0.5723,0.5716,0.5716,0.5725,0.5725,0.5725,0,0.5624,0.5633,0.5637,0.564,0.5653,0.5655,0.5661,0.5669,0.5674,0.5681,0.5684,0.5691,0.5695,0.5701,0.571,0.5712,0.5717,0.5721,0.5721,0.5721,0.5721,0.572,0.5714,0.5723,0.5723,0.5723,0.5723,0,0.5614,0.5615,0.5631,0.5633,0.5636,0.5647,0.5649,0.5656,0.5664,0.5668,0.5678,0.5682,0.5694,0.5699,0.5707,0.5712,0.5714,0.5718,0.572,0.5717,0.5717,0.5719,0.572,0.5723,0.5723,0.5723,0.5723,0,0.5598,0.5608,0.5613,0.5627,0.563,0.5632,0.5643,0.5646,0.5654,0.566,0.5662,0.5674,0.5681,0.5692,0.5702,0.5707,0.5712,0.5714,0.5709,0.571,0.5709,0.5709,0.5704,0.5705,0.5713,0.5713,0.5713,0,0.5591,0.5592,0.5607,0.5611,0.5616,0.5622,0.5627,0.5639,0.5644,0.5655,0.5657,0.5666,0.5673,0.5685,0.5695,0.5703,0.5707,0.5705,0.5708,0.5706,0.5708,0.5707,0.5708,0.5703,0.5703,0.5703,0.5703,0,0.5577,0.5583,0.5589,0.5599,0.5605,0.5613,0.5621,0.5623,0.5637,0.5642,0.5651,0.5657,0.5668,0.5677,0.5688,0.5694,0.5701,0.5702,0.5703,0.57,0.5697,0.5699,0.5707,0.5702,0.5702,0.5702,0.5702,0.5702,0.5566,0.5568,0.558,0.5588,0.5596,0.5604,0.5608,0.5617,0.5625,0.5635,0.5642,0.5651,0.5662,0.5677,0.5683,0.5691,0.5693,0.5694,0.5694,0.5694,0.5694,0.5696,0.5693,0.5693,0.5693,0.5693,0.5693,0,0.5553,0.5561,0.5569,0.5581,0.5588,0.5595,0.5605,0.5611,0.5618,0.5628,0.5636,0.5647,0.5656,0.5668,0.5678,0.5682,0.5686,0.5684,0.5684,0.5686,0.569,0.5689,0.5681,0.5681,0.5681,0.5681,0.5681,0.5681,0.5547,0.5553,0.5561,0.5571,0.558,0.5589,0.5594,0.5603,0.5611,0.5623,0.5631,0.5639,0.565,0.5662,0.5672,0.5675,0.5679,0.5676,0.5681,0.5684,0.5685,0.5686,0.5685,0.5677,0.5677,0.5676,0.5676,0.5676]}]]